TimeMDT,TemperatureF,Dew PointF,Humidity,Sea Level PressureIn,VisibilityMPH,Wind Direction,Wind SpeedMPH,Gust SpeedMPH,PrecipitationIn,Events,Conditions,WindDirDegrees,DateUTC
12:53 AM,62.1,48.9,62,30.07,10.0,South,8.1,-,N/A,,Clear,190,2013-07-16 06:53:00
1:53 AM,60.1,48.9,67,30.07,10.0,SSE,9.2,-,N/A,,Clear,160,2013-07-16 07:53:00
2:53 AM,59.0,50.0,72,30.07,10.0,South,9.2,-,N/A,,Clear,170,2013-07-16 08:53:00
3:53 AM,55.0,48.9,80,30.06,10.0,South,3.5,-,N/A,,Clear,180,2013-07-16 09:53:00
4:53 AM,55.0,48.9,80,30.07,10.0,South,3.5,-,N/A,,Clear,170,2013-07-16 10:53:00
5:53 AM,54.0,48.9,83,30.08,10.0,SSE,8.1,-,N/A,,Clear,160,2013-07-16 11:53:00
6:53 AM,60.1,53.1,78,30.08,9.0,SE,10.4,-,N/A,,Clear,140,2013-07-16 12:53:00
7:53 AM,64.0,55.0,73,30.09,10.0,SSE,16.1,-,N/A,,Clear,150,2013-07-16 13:53:00
8:53 AM,66.0,55.9,70,30.13,10.0,SSE,12.7,-,N/A,,Clear,160,2013-07-16 14:53:00
9:53 AM,71.1,55.0,57,30.12,10.0,South,16.1,-,N/A,,Clear,170,2013-07-16 15:53:00
10:53 AM,75.9,53.1,45,30.12,10.0,North,-9999.0,-,N/A,,Clear,0,2013-07-16 16:53:00
11:53 AM,79.0,52.0,39,30.10,10.0,South,16.1,27.6,N/A,,Clear,170,2013-07-16 17:53:00
12:53 PM,82.0,51.1,34,30.10,10.0,South,16.1,25.3,N/A,,Mostly Cloudy,180,2013-07-16 18:53:00
1:53 PM,82.9,51.1,33,30.09,10.0,South,19.6,26.5,N/A,,Mostly Cloudy,170,2013-07-16 19:53:00
2:53 PM,84.0,51.1,32,30.09,10.0,South,17.3,29.9,N/A,,Mostly Cloudy,170,2013-07-16 20:53:00
3:53 PM,84.9,48.9,29,30.10,10.0,South,20.7,31.1,N/A,,Scattered Clouds,170,2013-07-16 21:53:00
4:53 PM,84.0,50.0,31,30.10,10.0,South,21.9,27.6,N/A,,Scattered Clouds,170,2013-07-16 22:53:00
5:53 PM,82.0,51.1,34,30.10,10.0,South,20.7,27.6,N/A,,Partly Cloudy,170,2013-07-16 23:53:00
6:53 PM,80.1,52.0,38,30.09,10.0,SSE,20.7,26.5,N/A,,Clear,150,2013-07-17 00:53:00
7:53 PM,75.9,54.0,46,30.11,10.0,SSE,17.3,-,N/A,,Clear,160,2013-07-17 01:53:00
8:53 PM,73.0,55.0,53,30.12,10.0,SSE,15.0,-,N/A,,Clear,160,2013-07-17 02:53:00
9:53 PM,71.1,57.0,61,30.16,10.0,South,18.4,26.5,N/A,,Clear,170,2013-07-17 03:53:00
10:53 PM,68.0,57.9,70,30.17,10.0,South,16.1,24.2,N/A,,Clear,170,2013-07-17 04:53:00
11:53 PM,66.9,57.9,73,30.17,10.0,South,13.8,-,N/A,,Clear,170,2013-07-17 05:53:00